Dewpoint
5 6 8 8 6 10 10 10 7 7 6 6 6 5 4 3 0 -3 -3 -3 -1 -1 -0 -0 -0 1 1 1 1 -3 -2 -0
3 5 7 8 8 9 10 8 8 6 7 5 5 3 2 -1 0 -2 -1 -1 -1 -1 -1 -0 -2 -4 -3 -2 -4 -2 -3 -4
3 6 8 9 9 9 9 8 8 6 9 5 4 3 2 1 -1 0 1 1 -1 -2 -3 -5 -5 -6 -8 -8 -5 -4 -6 -3
5 4 8 9 9 9 9 8 6 9 9 6 5 4 2 1 1 2 1 1 -1 -3 -6 -10 -13 -12 -11 -10 -6 -4 -2 -2
5 6 8 9 10 10 10 9 8 9 7 5 5 3 2 2 2 2 1 -2 -7 -13 -21 -25 -24 -25 -25 -20 -12 -6 -2 -2
7 7 7 9 10 10 10 10 9 5 5 4 2 1 3 2 1 1 -4 -5 -14 -20 -25 -25 -26 -27 -18 -9 -4 -2 -1 -1
7 7 8 8 9 10 9 9 8 5 3 2 1 2 3 2 1 -3 -1 -3 -14 -23 -25 -26 -27 -17 -7 -3 -2 -1 -1 -2
8 8 9 9 9 10 9 9 6 6 4 2 2 2 1 0 -2 0 -0 -9 -22 -27 -26 -27 -24 -11 -3 -3 -4 -6 -5 -5
8 9 9 9 9 10 8 6 6 5 2 2 2 2 -0 -1 0 -1 -9 -20 -24 -25 -26 -27 -14 -5 -3 -2 -5 -6 -6 -4
7 9 9 9 10 8 6 5 5 4 2 2 1 -1 -1 -0 -2 -9 -16 -21 -22 -20 -22 -22 -15 -6 -4 -3 -3 -5 -4 -4
8 9 9 9 9 8 6 4 3 2 2 1 -1 -1 -1 -2 -8 -13 -14 -15 -18 -20 -22 -12 -10 -12 -7 -6 -5 -5 -5 -7
6 7 7 7 6 5 4 2 2 2 2 0 -2 -1 -2 -5 -10 -9 -12 -15 -14 -16 -12 -9 -9 -7 -6 -6 -6 -6 -7 -7
4 4 4 3 2 2 3 3 2 2 2 -2 -2 -3 -4 -7 -7 -7 -8 -9 -10 -11 -10 -10 -8 -5 -5 -6 -7 -7 -6 -7
3 2 2 1 2 3 3 3 2 2 -0 -3 -2 -3 -4 -4 -5 -5 -6 -7 -8 -7 -10 -10 -6 -5 -5 -8 -7 -7 -8 -8
3 1 0 0 1 2 3 3 3 1 -2 -2 -2 -3 -5 -4 -4 -5 -6 -6 -6 -6 -8 -8 -6 -6 -6 -6 -6 -7 -7 -9
2 2 1 1 2 3 3 3 3 2 -2 -2 -4 -6 -5 -4 -5 -5 -4 -5 -5 -6 -7 -7 -7 -6 -6 -7 -6 -6 -6 -6
-3 -0 2 2 3 3 3 3 3 1 -2 -3 -5 -6 -5 -5 -4 -2 -6 -8 -8 -7 -8 -7 -7 -7 -7 -8 -7 -6 -6 -12
-3 -0 2 3 4 3 3 3 2 -0 -2 -3 -7 -6 -6 -4 -3 -2 -8 -7 -8 -8 -8 -8 -7 -7 -8 -8 -7 -7 -7 -9
-1 -1 -0 2 3 3 3 3 1 -2 -2 -5 -7 -6 -5 -3 -2 -6 -8 -9 -8 -9 -9 -8 -7 -7 -7 -7 -7 -8 -8 -8
Wind_Speed
23 21 22 20 21 28 25 22 23 25 19 6 9 12 13 11 9 6 5 3 3 3 6 9 11 10 12 15 17 20 17 17
25 26 27 22 23 29 25 25 25 24 13 9 16 16 12 8 6 8 4 3 5 6 7 10 14 15 15 18 18 16 18 22
28 31 30 29 28 26 22 21 23 20 14 12 15 14 10 8 7 6 5 2 5 8 12 12 15 16 17 15 17 19 16 17
31 33 33 30 30 29 22 19 19 22 22 21 23 18 13 13 11 8 5 7 10 12 14 16 18 19 19 19 18 16 14 14
33 30 33 32 29 26 22 20 24 20 29 24 27 24 21 19 17 13 10 11 14 15 17 16 16 17 17 17 16 17 19 20
35 31 27 25 29 28 25 26 27 28 25 25 26 24 25 25 20 14 9 11 14 15 15 15 16 17 14 13 13 14 17 16
31 30 27 23 25 26 28 31 31 29 26 25 27 29 29 24 17 11 10 15 14 14 14 15 16 13 12 13 14 15 15 16
33 30 30 29 30 27 31 33 34 31 30 29 28 26 23 19 12 10 13 13 12 13 14 15 14 12 13 16 18 22 18 15
26 28 27 33 32 34 31 34 33 31 29 28 26 24 19 14 10 11 12 10 11 12 13 13 11 10 15 18 21 16 17 16
24 28 30 33 35 34 34 32 30 29 28 27 25 22 16 11 10 9 8 9 11 13 14 12 10 10 10 14 13 16 14 18
24 27 34 35 36 33 26 25 28 27 25 23 20 16 13 11 10 8 9 13 11 13 13 13 14 11 12 11 11 10 14 17
28 31 33 32 30 29 26 26 26 26 26 23 21 15 12 10 8 11 10 12 12 13 13 14 14 10 8 14 17 18 14 11
32 33 34 33 33 32 29 31 29 29 28 23 19 15 13 11 10 11 14 13 15 14 15 14 12 9 14 17 20 16 14 16
34 35 35 36 36 34 32 32 32 31 30 26 21 18 16 12 11 15 14 17 18 17 18 14 8 13 18 19 12 13 14 16
35 38 40 39 39 38 35 33 34 31 29 25 21 18 16 15 16 14 15 19 19 19 18 12 11 17 19 20 19 17 18 15
23 35 39 37 37 33 30 30 33 31 28 22 20 13 14 17 15 12 16 21 20 21 16 14 15 18 18 20 17 18 22 22
11 10 29 34 35 32 29 29 30 32 29 24 17 15 23 16 13 10 13 15 20 19 19 20 19 19 21 21 20 19 19 18
7 7 4 19 28 26 27 30 31 32 29 23 22 23 21 17 13 14 14 16 18 21 23 24 21 21 22 21 20 20 19 20
8 7 7 7 13 18 23 28 30 28 25 25 24 22 18 13 11 12 13 18 22 20 24 21 22 22 21 20 18 18 20 21
Wind_Direction
165 170 179 180 166 161 173 175 170 171 175 195 187 153 161 162 162 184 154 163 132 240 271 297 302 297 282 285 293 301 306 301
174 179 185 184 172 172 181 175 174 179 188 191 157 163 167 159 165 166 202 288 319 309 290 277 290 297 298 298 303 303 306 305
173 179 185 184 179 179 183 184 184 191 188 169 174 170 172 158 187 189 184 231 290 293 298 298 302 305 308 309 305 306 307 299
180 182 188 187 182 184 186 178 185 185 204 183 174 179 168 166 168 171 218 289 305 307 300 300 301 301 302 303 302 306 303 296
178 182 184 185 182 190 186 178 177 196 185 183 180 180 177 174 180 195 232 277 293 302 300 302 307 304 300 295 291 286 290 293
184 185 183 193 191 184 182 185 186 183 190 203 196 194 189 186 195 221 273 308 311 303 305 309 310 313 307 300 301 297 289 290
182 184 191 198 208 188 194 192 192 194 196 200 201 199 198 203 218 248 303 312 298 299 308 312 317 315 304 308 299 295 294 299
182 184 189 198 207 203 196 196 198 203 209 208 209 212 214 220 236 273 295 291 290 297 304 314 314 304 302 297 303 304 309 309
185 192 205 202 198 198 201 201 206 211 213 210 213 218 220 232 258 283 287 292 294 296 305 308 298 298 299 293 313 319 311 319
198 197 194 192 195 197 200 205 214 221 221 217 216 219 230 241 260 268 277 296 307 302 303 301 291 279 306 309 306 313 308 300
198 201 192 189 195 200 204 216 225 229 230 224 217 223 229 252 253 262 291 297 294 301 304 298 296 296 280 305 306 304 305 310
189 194 197 204 212 220 221 212 222 230 232 228 219 224 242 250 255 286 293 299 302 307 304 297 301 306 298 286 294 299 297 294
196 201 205 209 215 218 219 212 217 226 229 226 228 231 256 247 268 283 291 302 306 309 302 299 298 294 285 288 298 295 288 287
199 203 206 209 211 210 208 209 213 222 224 223 231 236 245 244 250 274 283 295 304 300 310 300 276 285 284 306 289 278 272 285
206 208 210 212 210 208 208 208 214 219 223 226 232 235 240 259 249 253 288 290 295 302 310 312 281 279 289 295 278 276 282 291
228 219 215 213 205 203 207 209 212 219 224 228 222 239 240 226 232 268 310 287 300 298 297 290 292 286 288 292 292 287 280 283
344 344 222 212 210 210 213 221 217 219 217 216 219 220 208 227 243 271 301 303 287 294 288 286 291 281 288 290 291 291 287 294
305 360 248 231 220 220 229 227 219 216 219 211 209 211 215 221 247 287 318 301 300 290 289 285 283 279 285 281 285 292 290 293
350 320 313 253 242 236 231 222 216 212 205 203 208 212 226 236 276 325 287 289 273 283 287 283 280 278 280 278 282 288 290 288
Height
1533 1534 1536 1538 1543 1547 1550 1553 1556 1558 1561 1563 1564 1565 1566 1569 1570 1571 1573 1574 1573 1573 1573 1572 1570 1569 1568 1567 1565 1563 1561 1559
1532 1534 1536 1538 1541 1544 1548 1551 1554 1557 1560 1561 1563 1563 1564 1567 1569 1571 1571 1570 1571 1571 1571 1570 1568 1566 1564 1562 1560 1558 1557 1553
1531 1531 1533 1534 1537 1542 1545 1550 1553 1555 1557 1560 1561 1561 1564 1567 1568 1569 1569 1569 1569 1568 1567 1565 1563 1561 1559 1557 1555 1553 1552 1550
1528 1529 1528 1531 1534 1538 1542 1547 1550 1552 1554 1557 1560 1561 1563 1563 1564 1564 1564 1565 1565 1564 1563 1561 1559 1557 1555 1553 1551 1549 1548 1547
1520 1525 1526 1528 1532 1536 1539 1542 1546 1549 1551 1553 1554 1556 1557 1559 1559 1561 1562 1562 1562 1560 1558 1556 1555 1553 1551 1549 1548 1546 1544 1543
1513 1519 1525 1531 1533 1535 1539 1541 1543 1546 1548 1550 1551 1552 1553 1554 1557 1558 1559 1558 1556 1555 1553 1552 1551 1549 1547 1545 1545 1544 1542 1542
1512 1518 1522 1529 1533 1533 1535 1537 1540 1542 1544 1545 1546 1547 1548 1551 1553 1554 1554 1553 1552 1550 1549 1547 1547 1546 1545 1544 1542 1541 1540 1538
1509 1514 1519 1524 1529 1531 1532 1533 1536 1538 1541 1542 1543 1545 1547 1548 1550 1550 1550 1548 1547 1546 1545 1544 1544 1544 1543 1542 1541 1539 1536 1536
1508 1511 1515 1519 1525 1528 1528 1531 1532 1535 1537 1540 1542 1543 1545 1545 1546 1546 1546 1547 1546 1543 1542 1541 1542 1541 1539 1539 1538 1536 1534 1532
1507 1510 1513 1517 1521 1525 1526 1527 1530 1532 1534 1537 1539 1540 1541 1542 1542 1542 1543 1543 1544 1544 1541 1539 1538 1537 1536 1535 1534 1533 1530 1529
1505 1509 1511 1513 1519 1523 1525 1526 1528 1530 1533 1535 1537 1539 1539 1539 1539 1539 1539 1538 1539 1540 1537 1537 1536 1533 1532 1531 1529 1528 1527 1526
1502 1505 1508 1512 1516 1519 1522 1523 1526 1528 1530 1533 1536 1537 1538 1537 1537 1537 1536 1536 1536 1535 1535 1535 1533 1531 1529 1527 1526 1525 1522 1521
1495 1499 1502 1506 1509 1512 1515 1518 1520 1524 1527 1530 1533 1535 1535 1535 1535 1534 1535 1535 1534 1532 1532 1531 1530 1528 1526 1523 1522 1521 1517 1515
1491 1494 1495 1497 1501 1504 1508 1511 1514 1516 1519 1523 1527 1529 1532 1533 1534 1534 1533 1533 1532 1530 1529 1526 1525 1523 1522 1519 1518 1517 1514 1512
1486 1487 1488 1489 1492 1495 1500 1504 1508 1511 1514 1517 1520 1525 1528 1530 1531 1531 1532 1531 1529 1528 1526 1525 1523 1520 1518 1516 1515 1515 1512 1508
1488 1484 1485 1486 1489 1494 1498 1502 1504 1506 1510 1512 1516 1520 1524 1527 1528 1527 1528 1526 1526 1524 1521 1519 1518 1516 1514 1511 1510 1509 1507 1505
1484 1484 1484 1484 1487 1490 1495 1497 1499 1502 1505 1509 1512 1516 1519 1521 1521 1522 1523 1522 1518 1517 1518 1514 1512 1510 1510 1508 1506 1505 1504 1502
1484 1485 1485 1486 1486 1488 1489 1491 1494 1497 1501 1504 1505 1507 1510 1510 1514 1515 1517 1515 1514 1513 1511 1509 1507 1505 1503 1502 1501 1500 1499 1497
1484 1485 1486 1486 1486 1485 1487 1489 1491 1494 1497 1499 1500 1502 1505 1506 1507 1511 1513 1512 1508 1506 1505 1503 1500 1498 1497 1497 1496 1495 1493 1493